Wind_Speed
25 26 27 28 29 29 30 30 29 23 19 16 11 9 7 5 4 3 3 3 4 4 4 8 9 9 2 3 1 7 7 7 5 7 6 3 5 2 2 2 3 1 3 2 4 4 3
22 25 25 27 29 31 32 31 31 28 22 17 13 11 9 5 4 2 2 2 3 3 4 8 9 9 2 1 1 7 7 6 9 8 8 7 2 1 1 2 2 2 3 4 5 4 4
23 25 25 26 28 31 31 32 32 31 26 19 15 12 10 6 3 3 3 2 2 4 6 7 7 6 2 3 1 7 7 6 7 6 2 4 4 3 2 1 1 2 4 5 5 4 3
23 25 25 26 28 30 31 32 33 34 30 23 17 14 11 8 5 4 4 3 4 5 7 4 5 1 2 2 1 6 3 1 3 5 3 2 5 2 3 1 1 1 1 4 2 6 2
20 24 26 27 29 30 31 32 33 34 34 28 20 17 14 12 6 5 6 6 6 6 7 3 2 1 5 1 0 4 5 1 5 3 3 3 2 2 4 2 4 3 3 3 5 7 2
19 22 24 26 28 30 31 31 32 34 34 32 23 19 16 13 5 7 7 6 6 7 2 2 3 2 1 1 2 3 3 2 1 3 4 3 4 3 3 3 2 3 3 4 4 3 4
17 20 23 25 27 29 30 31 32 33 34 35 28 21 18 11 7 8 4 2 4 3 2 2 2 2 1 4 3 1 3 2 2 0 1 1 4 3 5 3 2 2 3 5 5 3 3
16 19 21 23 26 28 29 29 30 32 33 35 31 23 18 10 7 7 5 5 2 1 4 1 0 1 0 1 2 1 4 1 1 1 2 4 3 3 4 2 1 2 4 6 5 4 2
15 18 20 23 24 26 28 28 30 31 32 34 32 25 19 10 4 8 12 5 2 1 1 1 2 1 1 0 2 2 2 1 2 2 3 5 2 4 2 1 3 4 5 3 4 6 6
15 17 19 21 23 24 25 27 28 30 31 32 33 27 20 9 3 5 4 4 3 1 4 2 1 1 0 1 2 1 1 1 2 2 2 4 2 3 3 4 4 4 2 2 3 5 2
17 18 18 20 21 22 23 25 27 29 31 32 34 29 17 12 3 3 3 4 4 1 4 0 1 1 1 2 2 2 0 1 2 1 3 5 5 4 4 4 4 6 1 5 3 2 3
17 17 17 19 22 23 23 25 26 27 30 31 32 29 15 5 4 4 4 5 1 5 4 1 2 1 2 2 2 3 0 0 1 1 3 5 0 3 4 2 2 2 4 4 2 2 1
16 15 17 19 21 21 23 25 27 27 29 31 29 26 10 5 3 7 5 2 5 3 1 1 1 2 1 3 3 4 2 2 3 1 2 1 3 1 2 1 2 2 4 4 4 2 5
15 15 17 17 18 20 22 25 25 26 29 32 28 21 10 3 6 6 1 4 1 3 1 2 2 2 4 1 4 3 2 4 5 3 0 3 6 7 5 5 6 4 5 4 5 3 5
13 14 15 15 16 18 20 23 25 27 28 31 27 14 6 3 6 5 4 3 6 3 1 2 4 2 3 2 2 2 6 5 5 7 7 2 5 2 1 1 3 3 3 3 2 2 2
12 13 13 14 15 17 20 22 26 28 29 26 24 9 5 3 6 2 4 5 3 0 1 1 3 5 2 3 2 3 3 2 4 2 3 2 6 3 0 1 1 3 1 1 1 4 5
10 13 14 15 16 17 19 22 25 27 28 21 9 4 1 5 2 4 3 6 2 1 1 2 3 3 3 3 3 3 5 3 2 2 4 1 4 2 3 7 8 1 3 4 2 4 3
12 13 13 14 16 17 18 20 22 23 27 18 6 3 2 4 3 2 3 3 3 3 1 2 1 3 4 3 3 3 7 6 4 6 4 4 3 5 11 2 1 4 7 6 4 4 4
10 6 9 12 14 16 18 19 19 18 20 12 3 3 3 1 2 3 6 3 2 5 4 5 4 6 1 3 3 5 5 3 5 6 6 3 3 4 8 2 2 3 2 3 1 1 9
16 16 13 12 15 17 17 17 18 16 13 12 2 3 4 2 1 3 2 4 2 3 3 4 3 1 2 4 6 6 3 1 3 2 4 5 5 8 14 13 1 4 6 6 10 5 6
19 18 19 19 18 17 18 17 19 17 11 6 2 4 3 3 2 0 0 2 6 5 4 6 3 6 7 5 5 9 6 3 2 5 3 3 6 6 15 16 10 16 13 12 14 16 12
19 19 18 19 19 20 21 22 19 19 18 5 2 2 3 3 3 4 2 4 7 6 4 9 11 9 6 8 12 13 3 3 6 4 6 4 5 3 18 12 15 23 18 18 19 23 22
19 20 19 19 18 19 21 22 23 22 17 6 9 7 3 4 4 4 5 6 7 4 7 10 7 2 4 9 3 4 6 6 9 7 7 5 4 3 12 6 9 14 11 17 5 7 5
20 20 19 19 19 20 20 20 19 18 13 6 7 9 3 5 9 9 6 6 7 7 10 5 4 5 5 2 7 10 8 12 14 19 18 10 7 3 9 3 9 2 8 9 15 9 7
19 19 19 19 20 20 19 18 18 17 15 12 11 3 3 6 7 8 8 9 13 15 16 14 13 14 6 3 5 5 4 4 9 18 17 19 12 5 5 7 5 6 2 3 2 4 6
19 19 19 19 19 18 18 19 19 18 17 16 13 9 6 5 8 10 6 7 9 11 12 13 7 3 4 4 3 5 5 3 5 3 1 10 18 9 5 7 8 3 2 4 1 3 3
18 18 18 19 19 19 19 19 18 17 17 15 12 12 7 7 13 19 16 10 5 6 9 8 3 3 4 2 3 5 5 4 5 5 5 4 4 16 13 9 1 3 7 7 5 2 5
19 18 19 19 19 19 19 19 18 18 16 17 14 16 10 5 13 16 16 14 12 9 6 1 4 3 3 7 6 6 5 7 4 4 4 8 5 4 6 5 8 7 2 2 1 4 5
21 21 21 21 21 20 19 19 19 18 17 16 12 17 18 9 12 28 29 29 24 17 10 7 10 3 4 3 2 1 3 1 1 3 3 4 2 0 3 1 3 6 10 6 6 5 4
Wind_Direction
32 38 38 39 39 37 36 33 31 30 29 29 30 30 30 31 41 55 67 69 50 31 40 9 1 1 4 44 234 326 350 12 39 43 25 341 19 31 95 123 18 25 209 157 147 156 239
33 34 36 37 37 36 34 31 30 29 29 30 30 27 23 21 22 24 44 31 17 11 343 347 349 349 14 58 279 332 2 19 28 35 33 33 17 265 1 87 105 299 319 253 198 218 242
28 29 30 31 33 33 32 30 29 28 27 27 28 25 22 19 8 347 320 319 336 337 328 330 336 354 339 183 21 12 0 19 28 32 71 40 355 42 350 113 348 326 316 306 223 211 245
23 26 27 28 29 27 27 27 26 27 26 24 23 18 13 4 348 335 307 292 314 333 327 322 330 28 271 186 24 351 357 281 9 32 58 2 2 73 62 284 334 281 134 337 285 165 239
21 20 22 24 25 24 23 22 23 24 24 21 17 11 1 349 323 326 306 280 288 291 332 291 356 86 305 239 329 344 357 344 307 309 355 351 29 84 21 62 10 349 276 267 328 201 119
12 14 18 19 20 19 19 18 18 19 19 18 13 8 1 351 338 318 319 274 279 286 290 260 286 18 241 275 299 331 327 315 335 332 2 23 44 48 18 77 256 285 324 323 272 261 216
6 5 10 14 14 14 14 14 14 15 15 14 13 7 3 9 16 347 350 317 17 357 229 214 180 251 89 315 271 212 346 345 237 85 72 264 57 221 207 157 138 226 245 270 268 182 250
359 357 2 7 8 7 8 10 11 11 11 11 11 9 5 5 19 13 24 71 54 295 318 206 284 262 216 11 337 246 334 358 225 265 179 19 231 169 125 110 172 247 276 267 274 186 357
350 351 356 359 1 2 3 4 7 7 7 8 8 5 3 358 35 35 71 67 58 13 203 224 214 278 172 79 299 231 10 8 240 276 222 185 253 139 128 236 252 243 217 265 249 328 289
345 349 351 352 354 356 359 0 2 3 3 2 2 2 2 4 85 16 57 17 9 337 60 234 255 244 163 125 288 97 48 143 253 237 304 239 163 179 220 251 184 287 182 254 302 31 291
346 347 348 350 351 353 356 357 357 358 358 357 357 358 1 26 9 47 340 344 351 69 8 276 209 146 158 216 278 192 104 83 228 198 103 257 168 200 239 226 162 232 277 251 180 213 9
348 349 352 356 358 356 355 356 354 354 353 352 352 350 356 4 21 5 332 328 90 45 267 156 142 232 279 194 235 133 246 206 174 317 204 246 340 211 214 197 207 3 312 12 90 104 345
0 359 359 360 360 359 355 357 354 352 352 348 346 343 344 344 335 335 332 58 36 136 210 212 208 206 264 245 226 180 224 232 197 309 299 216 231 184 162 167 15 66 53 320 338 342 231
357 1 358 360 357 354 350 353 352 350 349 346 342 338 329 305 346 346 37 51 198 253 80 238 218 274 221 196 240 217 275 282 222 115 287 214 310 183 178 208 186 191 150 172 275 256 264
352 350 354 357 352 347 350 351 350 348 347 345 340 339 310 319 340 348 68 62 218 216 211 3 323 253 241 228 228 215 214 231 211 171 184 249 264 61 82 36 136 171 180 192 246 282 304
337 343 344 343 346 347 347 347 347 346 346 345 335 326 285 306 322 46 77 229 244 146 336 161 200 200 276 212 219 173 268 218 179 125 135 286 297 198 211 44 335 184 188 98 103 272 260
328 323 327 334 336 337 339 341 344 346 348 351 339 360 241 326 344 57 186 228 204 103 101 193 253 282 266 291 230 226 251 294 93 119 76 146 166 263 112 201 194 121 239 220 150 166 250
306 319 331 332 328 329 331 334 337 345 348 359 359 338 203 335 18 233 206 232 190 175 160 248 225 246 225 275 269 260 228 215 129 151 181 220 191 246 228 268 247 175 198 169 170 215 223
45 21 13 14 356 352 347 347 347 353 2 343 321 257 263 207 220 289 306 286 249 184 198 176 238 217 144 230 283 240 260 193 163 166 180 174 241 315 315 300 0 185 164 119 359 56 226
35 28 20 14 13 360 353 351 345 345 350 349 320 319 309 45 217 179 346 265 293 323 267 200 227 166 210 232 228 271 271 280 193 227 127 156 205 213 253 257 138 217 205 205 202 207 254
21 20 18 19 15 4 355 353 354 345 333 332 210 249 217 281 290 203 206 267 299 299 231 187 263 215 208 245 231 248 251 312 209 167 124 190 258 227 256 274 276 273 268 242 233 243 242
15 14 12 10 13 10 5 2 349 347 350 236 268 267 338 256 271 276 209 221 242 255 242 258 248 234 261 255 251 291 300 204 233 198 183 189 254 241 267 258 262 270 265 259 259 255 257
17 15 10 5 6 6 6 2 2 354 2 343 348 348 284 209 210 219 210 223 239 254 258 256 231 256 258 262 258 268 228 226 245 228 211 181 204 193 271 248 271 268 253 236 235 56 321
11 8 5 2 3 1 2 358 360 1 10 331 315 323 283 275 230 226 226 231 261 269 279 271 273 231 207 6 307 273 250 253 247 243 230 214 197 226 272 250 255 115 53 80 105 71 45
2 358 357 355 354 354 353 353 355 355 350 337 306 289 295 286 269 268 266 264 276 275 263 264 261 256 260 148 266 270 266 267 245 243 230 221 217 229 236 221 281 190 69 97 72 100 29
352 352 352 350 350 349 348 348 349 349 347 341 322 280 245 282 254 268 287 305 282 262 263 258 248 62 115 192 180 228 231 231 269 248 52 211 215 211 197 239 250 70 72 10 248 207 124
346 345 344 342 340 338 338 338 338 338 340 338 306 308 281 270 259 259 274 288 223 251 256 247 188 167 142 208 250 233 241 233 245 224 197 164 208 225 238 247 150 345 320 302 199 87 96
337 335 334 333 332 332 332 332 330 331 329 335 311 306 286 272 281 285 287 287 291 278 270 304 327 225 218 227 218 206 226 221 223 225 217 187 198 206 229 238 241 340 228 220 116 58 81
327 324 321 321 323 324 323 323 322 324 320 324 300 303 307 262 273 298 282 276 271 266 271 255 251 261 237 233 317 226 228 304 264 270 125 237 338 266 12 42 84 39 83 65 51 71 38
Height
843 839 836 833 829 825 821 817 813 809 806 804 802 801 800 799 799 798 798 797 797 796 795 794 793 791 791 792 795 792 790 788 786 785 785 784 786 787 793 791 792 795 794 792 793 795 796
846 842 838 835 831 827 822 819 815 811 808 805 803 802 800 800 799 799 798 797 796 796 795 794 793 792 792 797 792 791 789 788 787 786 786 786 788 787 788 791 795 793 793 793 794 794 794
847 844 840 837 833 829 825 821 817 813 809 806 804 803 801 800 799 799 798 797 796 795 795 794 793 792 792 794 791 791 790 789 788 788 787 788 787 787 789 794 791 792 800 797 794 793 795
848 845 842 839 835 832 828 824 819 814 810 807 805 803 801 800 798 797 796 796 795 794 794 793 793 792 795 791 791 790 790 789 789 788 788 788 787 788 791 791 794 799 801 809 792 794 793
850 847 844 840 837 833 830 825 821 816 812 808 805 803 800 798 797 796 795 794 794 793 793 793 793 793 796 792 791 791 790 789 789 788 788 788 788 793 795 803 812 805 816 802 798 794 797
852 849 846 842 839 835 831 827 822 818 813 809 806 803 800 796 795 795 793 792 792 792 792 792 793 798 793 793 791 790 790 789 789 788 790 790 796 804 807 814 822 814 813 809 803 795 796
853 850 847 844 840 836 832 828 823 820 815 811 807 803 800 797 795 793 792 792 794 795 792 792 793 793 791 791 790 790 789 789 789 790 799 794 807 811 802 801 802 805 808 812 802 794 797
853 850 847 844 841 838 834 830 826 821 817 813 808 804 801 798 797 794 794 796 801 803 799 790 790 791 791 791 793 790 790 793 792 798 792 805 809 799 798 799 802 805 810 812 796 792 796
852 850 847 844 842 839 836 832 827 822 818 813 809 805 801 798 797 796 797 800 801 801 802 793 790 791 792 793 793 791 790 791 794 797 794 804 797 797 798 801 805 804 807 803 805 802 795
853 850 847 845 842 839 836 832 828 823 819 815 811 806 802 797 799 799 800 801 801 800 812 798 794 792 792 791 795 790 790 793 794 797 796 799 795 797 800 804 801 807 798 800 803 812 813
852 850 848 845 843 839 836 833 828 824 820 815 811 807 803 799 800 800 803 801 800 800 841 797 796 791 791 795 793 792 791 793 796 794 797 797 801 801 803 798 793 800 797 802 801 810 812
852 850 848 845 843 840 837 833 829 825 821 816 812 807 804 802 802 802 801 800 800 817 839 800 793 793 796 793 791 792 792 792 792 796 795 797 793 794 794 792 793 796 798 801 804 815 825
852 850 848 846 844 841 837 834 830 826 821 816 812 807 804 803 803 801 799 800 821 831 794 800 797 793 794 795 791 793 794 798 800 799 802 795 795 792 792 797 796 798 807 821 819 824 807
853 850 848 847 845 842 838 834 831 827 822 816 810 806 804 803 802 800 799 807 818 798 798 793 794 794 801 792 793 793 796 801 790 791 806 810 812 796 792 792 795 800 804 821 809 809 802
853 850 848 847 845 842 839 835 831 827 822 816 809 805 803 802 801 800 804 824 815 798 795 798 796 799 797 794 797 795 798 794 784 788 803 801 795 790 791 789 791 799 809 799 807 806 810
853 851 849 847 845 842 839 835 831 826 821 816 809 805 802 801 800 800 811 815 797 794 795 796 802 796 796 799 798 798 791 780 783 784 784 790 803 791 795 793 794 795 796 806 810 810 805
852 850 848 846 843 841 838 835 831 826 821 815 810 810 801 801 800 805 817 811 794 794 795 799 799 798 794 796 791 794 788 780 779 787 786 790 799 798 796 798 792 808 804 800 797 807 799
850 848 846 844 841 839 837 834 831 827 821 816 815 820 801 800 811 810 809 792 796 794 794 797 798 798 797 794 796 792 792 780 780 785 791 788 798 804 791 783 781 786 790 790 796 802 800
849 846 845 843 840 838 835 833 830 828 826 824 822 815 800 800 815 813 802 793 792 794 795 797 797 795 791 795 800 793 787 781 780 785 787 787 797 805 791 789 785 782 781 784 793 810 789
849 847 844 842 840 838 836 833 831 828 827 826 824 820 805 801 803 800 803 799 796 792 792 790 791 789 792 796 796 794 785 780 783 784 786 782 793 790 786 774 776 788 784 783 788 791 776
851 848 846 843 841 838 836 833 831 828 826 826 822 816 807 811 805 801 801 799 800 800 792 789 791 792 794 796 792 790 787 786 784 785 787 788 799 791 778 775 776 771 772 771 778 774 771
852 849 846 845 842 839 836 834 831 827 825 823 820 813 810 809 801 800 800 800 796 794 792 791 791 788 787 789 786 786 787 787 786 789 789 792 790 795 780 779 776 767 765 762 760 753 752
852 849 848 846 843 840 836 835 831 828 827 824 815 812 809 798 798 799 798 793 790 788 784 780 782 786 787 784 780 781 782 781 779 781 788 794 795 795 767 768 769 757 755 753 751 787 786
853 851 849 846 844 841 838 836 834 833 831 830 827 823 812 794 792 787 785 783 786 785 786 781 781 782 780 778 777 776 779 777 775 769 767 777 785 783 764 770 759 760 776 770 788 804 805
855 852 850 847 845 842 840 838 835 832 832 829 827 825 816 799 792 787 785 784 781 780 779 776 773 770 770 776 779 777 774 775 760 751 756 759 766 769 764 755 740 767 782 782 778 811 817
855 852 850 847 845 842 840 837 834 831 830 828 825 823 823 813 792 791 787 784 780 775 773 768 768 768 770 774 776 774 762 754 754 744 752 753 751 757 754 746 738 778 792 797 793 790 815
854 851 849 846 844 841 839 835 833 831 829 826 824 824 821 807 789 792 788 783 777 777 774 770 764 768 770 771 772 765 758 755 750 750 753 757 752 742 737 733 747 802 802 799 771 790 815
852 850 847 844 842 839 836 834 832 829 827 825 822 820 820 807 791 791 788 786 781 777 771 767 769 766 768 763 757 752 750 739 743 739 740 744 747 743 740 732 734 807 800 786 818 820 824
850 847 844 841 838 836 833 831 828 826 824 822 819 816 814 809 790 786 784 781 779 775 776 767 763 760 758 757 762 761 753 756 746 738 745 741 763 756 783 791 813 814 816 819 820 823 826